| time (UTC) | temp C | wind direction | speed KPH | gust KPH | rain 1hr cm | rain 24hr cm | rain mn cm | humidity % | barometer mb |
| 20260508074527 | 8 | 232 | 3.2 | 16.1 | 0.00 | 0.03 | 0.03 | 82 | 1022.6 |
| 20260508073024 | 9 | 217 | 3.2 | 17.7 | 0.00 | 0.03 | 0.03 | 81 | 1022.4 |
| 20260508071525 | 9 | 267 | 4.8 | 20.9 | 0.00 | 0.03 | 0.03 | 80 | 1022.0 |
| 20260508070023 | 10 | 265 | 9.7 | 24.1 | 0.00 | 0.03 | 0.03 | 79 | 1021.8 |
| 20260508064546 | 10 | 229 | 6.4 | 19.3 | 0.00 | 0.03 | 0.03 | 78 | 1021.6 |
| 20260508063027 | 10 | 261 | 11.3 | 29.0 | 0.00 | 0.03 | 0.03 | 76 | 1021.5 |
| 20260508061521 | 11 | 236 | 6.4 | 19.3 | 0.00 | 0.03 | 0.03 | 75 | 1021.2 |
| 20260508060024 | 11 | 228 | 8.0 | 24.1 | 0.00 | 0.03 | 0.03 | 75 | 1021.1 |
| 20260508054534 | 11 | 237 | 8.0 | 22.5 | 0.00 | 0.03 | 0.03 | 74 | 1021.0 |
| 20260508053019 | 11 | 265 | 11.3 | 29.0 | 0.00 | 0.03 | 0.03 | 73 | 1020.9 |
| 20260508050025 | 12 | 267 | 9.7 | 24.1 | 0.00 | 0.03 | 0.03 | 70 | 1020.7 |
| 20260508044513 | 11 | 219 | 9.7 | 25.7 | 0.00 | 0.03 | 0.03 | 73 | 1020.7 |
| 20260508043013 | 11 | 238 | 9.7 | 22.5 | 0.00 | 0.03 | 0.03 | 75 | 1020.4 |
| 20260508041508 | 11 | 239 | 11.3 | 33.8 | 0.00 | 0.03 | 0.03 | 76 | 1020.2 |
| 20260508040005 | 11 | 228 | 9.7 | 25.7 | 0.00 | 0.03 | 0.03 | 77 | 1020.0 |
| 20260508034511 | 11 | 238 | 12.9 | 25.7 | 0.00 | 0.03 | 0.03 | 77 | 1020.2 |
| 20260508033003 | 10 | 254 | 11.3 | 24.1 | 0.00 | 0.03 | 0.03 | 78 | 1020.1 |
| 20260508031607 | 10 | 268 | 6.4 | 25.7 | 0.03 | 0.03 | 0.03 | 79 | 1020.6 |
| 20260508030105 | 10 | 268 | 12.9 | 30.6 | 0.03 | 0.03 | 0.03 | 78 | 1020.7 |
| 20260508024555 | 10 | 251 | 11.3 | 32.2 | 0.03 | 0.03 | 0.03 | 79 | 1020.6 |
| 20260508023052 | 10 | 253 | 11.3 | 38.6 | 0.03 | 0.03 | 0.03 | 79 | 1020.4 |
| 20260508021551 | 9 | 259 | 14.5 | 29.0 | 0.00 | 0.00 | 0.00 | 79 | 1020.8 |
| 20260508020050 | 9 | 235 | 16.1 | 37.0 | 0.00 | 0.00 | 0.00 | 80 | 1020.7 |
| 20260508014545 | 9 | 263 | 16.1 | 38.6 | 0.00 | 0.00 | 0.00 | 80 | 1021.1 |
| 20260508013043 | 8 | 253 | 14.5 | 27.4 | 0.00 | 0.00 | 0.00 | 80 | 1021.6 |
| 20260508011545 | 8 | 240 | 14.5 | 37.0 | 0.00 | 0.00 | 0.00 | 80 | 1021.7 |
| 20260508010040 | 8 | 278 | 14.5 | 30.6 | 0.00 | 0.00 | 0.00 | 81 | 1021.8 |
| 20260508004540 | 8 | 245 | 14.5 | 33.8 | 0.00 | 0.00 | 0.00 | 82 | 1022.0 |
| 20260508003035 | 8 | 213 | 8.0 | 25.7 | 0.00 | 0.00 | 0.00 | 84 | 1021.9 |
| 20260508001534 | 7 | 255 | 6.4 | 24.1 | 0.00 | 0.00 | 0.00 | 85 | 1022.2 |
| 20260508000030 | 7 | 213 | 6.4 | 22.5 | 0.00 | 0.00 | 0.00 | 85 | 1022.3 |
| 20260507234533 | 7 | 322 | 9.7 | 27.4 | 0.00 | 0.00 | 0.00 | 85 | 1022.2 |
| 20260507233033 | 6 | 292 | 6.4 | 17.7 | 0.00 | 0.00 | 0.00 | 86 | 1022.2 |
| 20260507231523 | 6 | 284 | 8.0 | 17.7 | 0.00 | 0.00 | 0.00 | 87 | 1022.1 |
| 20260507224522 | 6 | 18 | 3.2 | 14.5 | 0.00 | 0.00 | 0.00 | 89 | 1022.0 |
| 20260507223017 | 5 | 349 | 8.0 | 22.5 | 0.00 | 0.00 | 0.00 | 89 | 1021.5 |
| 20260507221518 | 5 | 337 | 3.2 | 22.5 | 0.00 | 0.00 | 0.00 | 89 | 1021.6 |
| 20260507220014 | 5 | 301 | 8.0 | 24.1 | 0.00 | 0.00 | 0.00 | 89 | 1021.0 |